This is the latest recevied weather packets stored in our database for station/object KC3BAN-3. If no packets are shown the sender has not sent any weather packets the latest 10 day(s).
| Time | Temp. | Humidity | Pressure | Rain* | Wind** | Luminosity | Snow |
|---|---|---|---|---|---|---|---|
| 1777785966 | 12.78° C | 77% | 1011.7 hPa | 0 mm | - | - | - |
| 1777785666 | 12.78° C | 77% | 1011.6 hPa | 0 mm | - | - | - |
| 1777785497 | 12.78° C | 77% | 1012 hPa | 0 mm | - | - | - |
| 1777785066 | 12.78° C | 77% | 1011.8 hPa | 0 mm | - | - | - |
| 1777784767 | 12.78° C | 77% | 1011.8 hPa | 0 mm | - | - | - |
| 1777784470 | 12.78° C | 77% | 1011.9 hPa | 0 mm | - | - | - |
| 1777784293 | 12.78° C | 77% | 1011.9 hPa | 0 mm | - | - | - |
| 1777783861 | 12.78° C | 77% | 1011.8 hPa | 0 mm | - | - | - |
| 1777783556 | 12.78° C | 77% | 1011.7 hPa | 0 mm | - | - | - |
| 1777783248 | 12.78° C | 76% | 1012 hPa | 0 mm | - | - | - |
| 1777782943 | 12.78° C | 76% | 1011.8 hPa | 0 mm | - | - | - |
| 1777782638 | 12.78° C | 75% | 1012 hPa | 0 mm | - | - | - |
| 1777782338 | 12.78° C | 73% | 1011.9 hPa | 0 mm | - | - | - |
| 1777782038 | 12.78° C | 72% | 1012 hPa | 0 mm | - | - | - |
| 1777781866 | 12.78° C | 71% | 1012.1 hPa | 0 mm | - | - | - |
| 1777781438 | 12.78° C | 70% | 1012 hPa | 0 mm | - | - | - |
| 1777781138 | 12.78° C | 70% | 1011.8 hPa | 0 mm | - | - | - |
| 1777780839 | 12.78° C | 70% | 1011.8 hPa | 0 mm | - | - | - |
| 1777780668 | 12.78° C | 70% | 1011.8 hPa | 0 mm | - | - | - |
| 1777780236 | 13.33° C | 72% | 1011.7 hPa | 0 mm | - | - | - |
| 1777780063 | 13.33° C | 75% | 1011.7 hPa | 0 mm | - | - | - |
| 1777779636 | 13.33° C | 72% | 1011.8 hPa | 0 mm | - | - | - |
| 1777779336 | 13.33° C | 72% | 1011.8 hPa | 0 mm | - | - | - |
| 1777779035 | 13.33° C | 78% | 1011.6 hPa | 0 mm | - | - | - |
| 1777778736 | 13.33° C | 78% | 1011.7 hPa | 0 mm | - | - | - |
* Rain latest hour (hover to see other rain measurements)
** Current wind speed in m/s (hover to see current wind gust speed)